Tracking 31027 objects as of 19-Jul-2025
HD Live streaming from Space Station
objects crossing your sky now

STARLINK-5199

Track STARLINK-5199 now!
10-day predictions
STARLINK-5199 is classified as:


NORAD ID: 54201
Int'l Code: 2022-141AW
Perigee: 546.2 km
Apogee: 547.6 km
Inclination: 53.2 °
Period: 95.4 minutes
Semi major axis: 6917 km
RCS: Unknown
Launch date: October 28, 2022
Source: United States (US)
Launch site: AIR FORCE WESTERN TEST RANGE (AFWTR)
Your satellite tracking list
NOAA 19
NOAA 15
NOAA 18
Track 3 satellite(s)




NASA's NSSDC Master Catalog

Two Line Element Set (TLE):
1 54201U 22141AW  25199.76809076  .00000277  00000-0  35465-4 0  9994
2 54201  53.2183 324.2312 0001056  91.0775 269.0338 15.08838400150682
Source of the keplerian elements: AFSPC